TimeCDT,TemperatureF,Dew PointF,Humidity,Sea Level PressureIn,VisibilityMPH,Wind Direction,Wind SpeedMPH,Gust SpeedMPH,PrecipitationIn,Events,Conditions,WindDirDegrees,DateUTC
12:15 AM,69.8,69.8,100,30.15,10.0,Calm,Calm,-,N/A,,Clear,0,2013-08-22 05:15:00
12:35 AM,69.8,69.8,100,30.16,10.0,Calm,Calm,-,N/A,,Clear,0,2013-08-22 05:35:00
12:55 AM,69.8,69.8,100,30.16,10.0,Calm,Calm,-,N/A,,Clear,0,2013-08-22 05:55:00
1:15 AM,69.8,69.8,100,30.16,10.0,Calm,Calm,-,N/A,,Clear,0,2013-08-22 06:15:00
1:35 AM,69.8,69.8,100,30.16,10.0,Calm,Calm,-,N/A,,Clear,0,2013-08-22 06:35:00
1:55 AM,69.8,69.8,100,30.15,10.0,Calm,Calm,-,N/A,,Clear,0,2013-08-22 06:55:00
2:15 AM,69.8,69.8,100,30.15,10.0,Calm,Calm,-,N/A,,Clear,0,2013-08-22 07:15:00
2:35 AM,68.0,68.0,100,30.16,10.0,Calm,Calm,-,N/A,,Clear,0,2013-08-22 07:35:00
2:55 AM,68.0,68.0,100,30.15,10.0,Calm,Calm,-,N/A,,Clear,0,2013-08-22 07:55:00
3:15 AM,68.0,68.0,100,30.15,10.0,Calm,Calm,-,N/A,,Clear,0,2013-08-22 08:15:00
3:35 AM,68.0,68.0,100,30.14,10.0,Calm,Calm,-,N/A,,Clear,0,2013-08-22 08:35:00
3:55 AM,68.0,68.0,100,30.14,10.0,Calm,Calm,-,N/A,,Clear,0,2013-08-22 08:55:00
4:15 AM,68.0,68.0,100,30.14,10.0,Calm,Calm,-,N/A,,Clear,0,2013-08-22 09:15:00
4:35 AM,68.0,68.0,100,30.14,10.0,Calm,Calm,-,N/A,,Clear,0,2013-08-22 09:35:00
4:55 AM,68.0,68.0,100,30.14,10.0,Calm,Calm,-,N/A,,Clear,0,2013-08-22 09:55:00
5:15 AM,68.0,68.0,100,30.15,10.0,Calm,Calm,-,N/A,,Scattered Clouds,0,2013-08-22 10:15:00
5:35 AM,68.0,68.0,100,30.15,7.0,Calm,Calm,-,N/A,,Clear,0,2013-08-22 10:35:00
5:55 AM,68.0,68.0,100,30.16,10.0,South,3.5,-,N/A,,Scattered Clouds,180,2013-08-22 10:55:00
6:15 AM,68.0,68.0,100,30.16,10.0,Calm,Calm,-,N/A,,Scattered Clouds,0,2013-08-22 11:15:00
6:35 AM,68.0,68.0,100,30.17,10.0,Calm,Calm,-,N/A,,Clear,0,2013-08-22 11:35:00
6:55 AM,68.0,68.0,100,30.18,10.0,Calm,Calm,-,N/A,,Scattered Clouds,0,2013-08-22 11:55:00
7:15 AM,69.8,69.8,100,30.18,10.0,Calm,Calm,-,N/A,,Mostly Cloudy,0,2013-08-22 12:15:00
7:35 AM,69.8,69.8,100,30.19,10.0,Calm,Calm,-,N/A,,Mostly Cloudy,0,2013-08-22 12:35:00
7:55 AM,71.6,71.6,100,30.18,7.0,Calm,Calm,-,N/A,Rain,Light Rain,0,2013-08-22 12:55:00
8:15 AM,71.6,71.6,100,30.18,10.0,Calm,Calm,-,N/A,,Overcast,0,2013-08-22 13:15:00
8:35 AM,73.4,73.4,100,30.18,10.0,Calm,Calm,-,N/A,,Scattered Clouds,0,2013-08-22 13:35:00
8:55 AM,75.2,75.2,100,30.17,10.0,Calm,Calm,-,N/A,,Clear,0,2013-08-22 13:55:00
9:15 AM,77.0,77.0,100,30.17,10.0,Calm,Calm,-,N/A,,Clear,0,2013-08-22 14:15:00
9:35 AM,78.8,78.8,100,30.18,10.0,SW,3.5,-,N/A,,Clear,220,2013-08-22 14:35:00
9:55 AM,78.8,78.8,100,30.17,10.0,Calm,Calm,-,N/A,,Scattered Clouds,0,2013-08-22 14:55:00
10:15 AM,80.6,71.6,74,30.17,10.0,Calm,Calm,-,N/A,,Scattered Clouds,0,2013-08-22 15:15:00
10:35 AM,82.4,71.6,70,30.17,10.0,NNW,4.6,-,N/A,,Mostly Cloudy,340,2013-08-22 15:35:00
10:55 AM,82.4,73.4,74,30.17,10.0,Calm,Calm,-,N/A,,Scattered Clouds,0,2013-08-22 15:55:00
11:15 AM,82.4,71.6,70,30.16,10.0,Calm,Calm,-,N/A,,Mostly Cloudy,0,2013-08-22 16:15:00
11:35 AM,84.2,71.6,66,30.16,10.0,North,8.1,-,N/A,,Mostly Cloudy,360,2013-08-22 16:35:00
11:55 AM,86.0,71.6,62,30.15,10.0,Calm,Calm,-,N/A,,Scattered Clouds,0,2013-08-22 16:55:00
12:15 PM,84.2,71.6,66,30.15,10.0,NNW,6.9,-,N/A,,Scattered Clouds,340,2013-08-22 17:15:00
12:35 PM,86.0,68.0,55,30.14,10.0,Calm,Calm,-,N/A,,Scattered Clouds,0,2013-08-22 17:35:00
12:55 PM,84.2,71.6,66,30.14,10.0,NNW,4.6,-,N/A,,Mostly Cloudy,330,2013-08-22 17:55:00
1:15 PM,86.0,69.8,58,30.13,10.0,Calm,Calm,-,N/A,,Scattered Clouds,0,2013-08-22 18:15:00
1:35 PM,87.8,69.8,55,30.11,10.0,Calm,Calm,-,N/A,,Scattered Clouds,0,2013-08-22 18:35:00
1:55 PM,86.0,69.8,58,30.11,10.0,NNW,3.5,-,N/A,,Scattered Clouds,340,2013-08-22 18:55:00
2:15 PM,84.2,71.6,66,30.10,10.0,NNE,5.8,-,N/A,,Clear,30,2013-08-22 19:15:00